SCP
0 0 0 0 0 0 0 0 0 0 0 0 0 0 0 0 0 0 0 0 0 0
0 0 0 0 0 0 0 0 0 0 0 0 0 0 0 0 0 0 0 0 0 0
0 0 0 0 0 0 0 0 0 0 0 0 0 0 0 0 0 0 0 0 0 0
0 0 0 0 0 0 0 0 0 0 0 0 0 0 0 0 0 0 0 0 0 0
0 0 0 0 0 0 0 0 0 0 0 0 0 0 0 0 0 0 0 0 0 0
0 0 0 0 0 0 0 0 0 0 0 0 0 0 0 0 0 0 0 0 0 0
0 0 0 0 0 0 0 0 0 0 0 0 0 0 0 0 0 0 0 0 0 0
0 0 0 0 0 0 0 0 0 0 0 0 0 0 0 0 0 0 0 0 0 0
0 0 0 0 0 0 0 0 0 0 0 0 0 0 0 0 0 0 0 0 0 0
0 0 0 0 0 0 0 0 0 0 0 0 0 0 0 0 0 0 0 0 0 0
0 0 0 0 0 0 0 0 0 0 0 0 0 0 0 0 0 0 0 0 0 0
0 0 0 0 0 0 0 0 0 0 0 0 0 0 0 0 0 0 0 0 0 0
0 0 0 0 0 0 0 0 0 0 0 0 0 0 0 0 0 0 0 0 0 0
0 0 0 0 0 0 0 0 0 0 0 0 0 0 0 0 0 0 0 0 0 0
Wind_Speed_500mb
76 56 56 54 50 47 45 44 45 44 45 46 43 32 41 40 41 38 35 35 40 38
54 58 55 49 41 40 40 39 40 40 37 30 33 36 32 33 37 41 40 34 32 28
43 49 51 47 41 43 40 37 36 36 33 33 31 31 34 28 23 20 18 16 16 17
35 36 42 41 38 38 37 34 33 31 28 28 23 19 14 13 11 9 9 11 13 16
27 31 32 34 34 33 31 29 27 23 20 16 12 9 8 4 2 4 9 13 17 22
33 35 34 34 33 31 30 27 24 20 15 12 10 7 3 2 6 10 14 17 21 24
34 35 34 34 34 31 28 23 21 19 15 11 7 3 2 6 9 12 16 20 23 26
36 37 38 37 35 33 30 25 21 15 11 7 3 1 4 7 10 14 17 20 24 28
41 42 42 40 37 32 27 22 17 11 7 5 3 2 8 11 13 16 19 22 25 29
46 46 43 39 36 31 25 19 14 11 7 3 2 6 8 12 15 17 21 25 29 34
49 47 44 41 35 27 22 18 12 6 2 4 8 7 9 13 17 21 25 29 32 36
49 47 43 37 32 27 21 12 8 4 9 19 11 9 9 14 18 22 25 29 33 38
53 47 42 36 32 21 18 13 7 9 15 13 13 12 15 17 20 21 25 32 38 46
52 47 43 37 30 23 14 6 9 19 15 13 12 14 16 17 20 27 35 41 46 50
Wind_Direction_500mb
242 238 240 244 249 252 250 252 243 255 255 264 260 252 265 275 279 274 271 272 278 281
233 228 233 232 240 248 242 249 251 251 249 255 265 265 269 269 271 275 277 276 279 282
226 227 223 228 242 234 237 233 241 249 247 254 259 261 264 263 266 271 279 288 298 302
213 220 224 230 221 227 233 230 232 238 244 249 244 240 243 253 259 272 291 306 313 315
202 206 204 207 208 212 219 222 228 226 219 215 210 214 227 231 258 307 314 317 319 317
198 195 198 200 202 206 211 204 198 194 188 189 191 188 191 282 316 318 317 317 318 316
201 197 200 199 196 191 186 184 178 174 177 182 185 187 291 321 323 323 324 324 321 320
200 196 194 190 185 180 175 174 173 175 176 179 186 274 327 326 331 330 327 327 326 325
196 192 187 182 177 176 175 173 174 174 173 178 193 341 347 334 335 332 326 328 331 332
194 190 185 182 180 178 175 172 171 166 165 211 336 357 333 330 330 331 330 332 334 333
192 190 187 184 180 177 172 162 155 154 222 315 312 316 319 329 335 338 337 337 337 338
192 191 188 183 177 168 159 170 171 117 315 276 287 307 328 331 335 337 340 347 346 343
190 189 186 179 169 173 165 154 247 268 242 265 287 308 321 335 340 348 349 349 347 345
188 184 179 176 169 168 213 201 233 237 245 260 282 306 320 332 343 351 350 347 346 345
Wind_Speed_850mb
76 56 56 54 50 47 45 44 45 44 45 46 43 32 41 40 41 38 35 35 40 38
54 58 55 49 41 40 40 39 40 40 37 30 33 36 32 33 37 41 40 34 32 28
43 49 51 47 41 43 40 37 36 36 33 33 31 31 34 28 23 20 18 16 16 17
35 36 42 41 38 38 37 34 33 31 28 28 23 19 14 13 11 9 9 11 13 16
27 31 32 34 34 33 31 29 27 23 20 16 12 9 8 4 2 4 9 13 17 22
33 35 34 34 33 31 30 27 24 20 15 12 10 7 3 2 6 10 14 17 21 24
34 35 34 34 34 31 28 23 21 19 15 11 7 3 2 6 9 12 16 20 23 26
36 37 38 37 35 33 30 25 21 15 11 7 3 1 4 7 10 14 17 20 24 28
41 42 42 40 37 32 27 22 17 11 7 5 3 2 8 11 13 16 19 22 25 29
46 46 43 39 36 31 25 19 14 11 7 3 2 6 8 12 15 17 21 25 29 34
49 47 44 41 35 27 22 18 12 6 2 4 8 7 9 13 17 21 25 29 32 36
49 47 43 37 32 27 21 12 8 4 9 19 11 9 9 14 18 22 25 29 33 38
53 47 42 36 32 21 18 13 7 9 15 13 13 12 15 17 20 21 25 32 38 46
52 47 43 37 30 23 14 6 9 19 15 13 12 14 16 17 20 27 35 41 46 50
Wind_Direction_850mb
242 238 240 244 249 252 250 252 243 255 255 264 260 252 265 275 279 274 271 272 278 281
233 228 233 232 240 248 242 249 251 251 249 255 265 265 269 269 271 275 277 276 279 282
226 227 223 228 242 234 237 233 241 249 247 254 259 261 264 263 266 271 279 288 298 302
213 220 224 230 221 227 233 230 232 238 244 249 244 240 243 253 259 272 291 306 313 315
202 206 204 207 208 212 219 222 228 226 219 215 210 214 227 231 258 307 314 317 319 317
198 195 198 200 202 206 211 204 198 194 188 189 191 188 191 282 316 318 317 317 318 316
201 197 200 199 196 191 186 184 178 174 177 182 185 187 291 321 323 323 324 324 321 320
200 196 194 190 185 180 175 174 173 175 176 179 186 274 327 326 331 330 327 327 326 325
196 192 187 182 177 176 175 173 174 174 173 178 193 341 347 334 335 332 326 328 331 332
194 190 185 182 180 178 175 172 171 166 165 211 336 357 333 330 330 331 330 332 334 333
192 190 187 184 180 177 172 162 155 154 222 315 312 316 319 329 335 338 337 337 337 338
192 191 188 183 177 168 159 170 171 117 315 276 287 307 328 331 335 337 340 347 346 343
190 189 186 179 169 173 165 154 247 268 242 265 287 308 321 335 340 348 349 349 347 345
188 184 179 176 169 168 213 201 233 237 245 260 282 306 320 332 343 351 350 347 346 345